Location: Unspecified
(17.6330°N, 0.0000°E)
Time: 01:16:25
(UTC+00:00)

S-56A Canister/Altair - Visible Passes

Search period start: 18 June 2019 00:00
Search period end: 28 June 2019 00:00
Orbit: 633 x 2499 km, 38.9° (Epoch: 16 June)

Date Brightness Start Highest point End Pass type
(mag) Time Alt. Az. Time Alt. Az. Time Alt. Az.
19 Jun 9.9 21:31:04 10° N 21:32:09 13° N 21:32:09 13° N visible
20 Jun 9.7 20:58:53 10° N 21:00:38 12° NNE 21:01:05 12° NNE visible
21 Jun 9.8 20:26:40 10° N 20:27:48 11° NNE 20:28:55 10° NNE visible
22 Jun 10.0 19:54:22 10° N 19:54:56 10° NNE 19:55:29 10° NNE visible
22 Jun 10.0 21:55:34 10° NW 21:56:24 15° NW 21:56:24 15° NW visible
23 Jun 10.2 19:21:28 10° N 19:22:00 10° N 19:22:32 10° NNE visible
23 Jun 9.2 21:23:02 10° NW 21:25:22 24° NNW 21:25:22 24° NNW visible
24 Jun 8.7 20:50:26 10° NNW 20:54:22 29° NNE 20:54:22 29° NNE visible
25 Jun 8.7 20:17:45 10° NNW 20:22:07 25° NNE 20:23:23 22° NE visible
26 Jun 9.2 19:44:57 10° NNW 19:49:23 22° NNE 19:52:26 13° ENE visible
26 Jun 9.9 21:48:54 10° WNW 21:49:51 15° WNW 21:49:51 15° WNW visible
27 Jun 9.5 19:12:02 10° NNW 19:16:36 21° NNE 19:20:19 10° ENE visible
27 Jun 8.8 21:16:03 10° WNW 21:18:55 32° WNW 21:18:55 32° WNW visible
